AO-07 1 07530U 74089B 22265.54760818 -.00000024 00000-0 13880-3 0 9999 2 07530 101.9158 245.7587 0011907 214.9368 254.9034 12.53657130189638 UO-11 1 14781U 84021B 22265.56309838 .00000854 00000-0 10905-3 0 9990 2 14781 97.6268 248.6215 0008653 13.6727 346.4720 14.83811888 54440 LO-19 1 20442U 90005G 22265.84860020 .00000110 00000-0 56794-4 0 9998 2 20442 98.8052 232.2483 0010719 240.7351 119.2761 14.33087020707111 HUBBLE 1 20580U 90037B 22265.68758586 .00002309 00000-0 12440-3 0 9992 2 20580 28.4692 244.3604 0002455 8.8196 163.3730 15.10901542581206 MET-2/21 1 22782U 93055A 22265.53916816 .00000081 00000-0 59336-4 0 9998 2 22782 82.5465 297.1856 0023590 76.2702 34.2033 13.83860234467431 AO-27 1 22825U 93061C 22265.55000938 .00000062 00000-0 41839-4 0 9992 2 22825 98.8806 298.6088 0009361 124.9968 235.2094 14.30192418512038 IO-26 1 22826U 93061D 22265.54968013 .00000078 00000-0 47586-4 0 9991 2 22826 98.8750 298.4819 0010004 113.0320 247.1918 14.30541010512295 FO-29 1 24278U 96046B 22265.52050128 -.00000024 00000-0 10608-4 0 9994 2 24278 98.5158 275.8501 0350823 31.5838 330.5846 13.53120334288730 NOAA-15 1 25338U 98030A 22265.79968013 .00000129 00000-0 72186-4 0 9991 2 25338 98.6385 294.0353 0010619 20.1433 340.0165 14.26172781267146 GO-32 1 25397U 98043D 22265.83120433 .00000041 00000-0 37619-4 0 9996 2 25397 98.8267 216.5950 0001517 142.5780 217.5504 14.23771707257509 ISS 1 25544U 98067A 22265.80891355 .00008322 00000-0 15244-3 0 9990 2 25544 51.6424 212.9381 0002405 282.4220 163.7568 15.50221925360323 NO-44 1 26931U 01043C 22265.20140251 .00000062 00000-0 55279-4 0 9991 2 26931 67.0515 168.6709 0005964 257.8082 102.2352 14.30734869 95240 SO-50 1 27607U 02058C 22265.53624181 .00000754 00000-0 12336-3 0 9998 2 27607 64.5568 4.7849 0081552 275.8966 83.2845 14.76252563 62700 CO-55 1 27844U 03031E 22265.56570567 .00000227 00000-0 12108-3 0 9996 2 27844 98.6812 271.7958 0009862 174.2982 185.8310 14.22496732997672 CO-57 1 27848U 03031J 22264.85549779 .00000179 00000-0 10046-3 0 9997 2 27848 98.6857 271.5950 0009457 190.8345 169.2631 14.22047432997381 RS-22 1 27939U 03042A 22265.77001797 .00000708 00000-0 13367-3 0 9992 2 27939 98.2056 46.5442 0011669 259.8464 100.1435 14.67473177 15319 NOAA-18 1 28654U 05018A 22265.80000727 .00000131 00000-0 94385-4 0 9998 2 28654 98.9415 336.1248 0015029 59.3091 300.9559 14.12778614893815 CO-58 1 28895U 05043F 22264.31405057 .00000972 00000-0 19220-3 0 9990 2 28895 98.1193 34.2892 0016302 195.4553 164.6154 14.64484275901447 Falconsat-3 1 30776U 07006E 22265.42026320 .00050428 00000-0 58386-3 0 9994 2 30776 35.4307 341.9142 0001684 181.1599 178.9132 15.60733039864707 CO-65 1 32785U 08021C 22265.48777019 .00001881 00000-0 20106-3 0 9996 2 32785 97.6683 233.3304 0010909 273.2168 86.7802 14.89887454781007 AAUSAT2 1 32788U 08021F 22265.37301893 .00004833 00000-0 41170-3 0 9994 2 32788 97.5427 247.3387 0012347 145.8831 214.3188 14.98160459782949 DO-64 1 32789U 08021G 22265.52499793 .00010763 00000-0 56649-3 0 9995 2 32789 97.3353 288.4181 0009204 359.7759 0.3469 15.15767961786622 CO-66 1 32791U 08021J 22265.16210368 .00002526 00000-0 24742-3 0 9994 2 32791 97.6217 238.4086 0011267 221.7202 138.3159 14.93105659781706 RS-30 1 32953U 08025A 22265.44065374 .00000024 00000-0 10000-3 0 9997 2 32953 82.5011 123.6362 0020121 48.9156 311.3655 12.43113440650382 PRISM 1 33493U 09002B 22265.52705593 .00005003 00000-0 40076-3 0 9994 2 33493 98.2404 257.6903 0013417 221.3615 138.6592 15.00586473743534 NOAA-19 1 33591U 09005A 22265.81229350 .00000157 00000-0 10986-3 0 9992 2 33591 99.1406 301.9605 0012923 274.8624 85.1071 14.12611720702192 SRMSAT 1 37841U 11058D 22265.65270606 .00000392 00000-0 70408-4 0 9994 2 37841 19.9732 27.3751 0011904 332.5808 57.4108 14.10773170565209 HRBE 1 37855U 11061F 22265.84270185 .00012943 00000-0 54523-3 0 9990 2 37855 101.7202 76.6640 0148401 130.3329 231.0961 15.14097230596432 RS-40 1 38735U 12041C 22265.43739391 .00000040 00000-0 21824-3 0 9994 2 38735 82.4783 205.0219 0017212 156.1956 203.9923 12.42587332460561 ZACUBE-1 1 39417U 13066B 22265.83158620 .00002006 00000-0 24798-3 0 9991 2 39417 97.6473 232.9992 0059133 85.3913 275.4052 14.82620050477559 Delfi-N3xt 1 39428U 13066N 22265.56741096 .00003226 00000-0 49808-3 0 9992 2 39428 97.8154 195.7748 0115966 328.0957 31.3261 14.69573035472793 GOMX-1 1 39430U 13066Q 22265.61763341 .00001033 00000-0 19073-3 0 9993 2 39430 97.7994 167.2367 0150363 98.4113 263.4165 14.60365693470474 LO-74 1 39440U 13066AA 22265.86528361 .00001259 00000-0 17586-3 0 9999 2 39440 97.7354 219.3858 0078368 174.3347 185.8769 14.77266910475861 AO-73 1 39444U 13066AE 22265.84303399 .00002475 00000-0 29651-3 0 9990 2 39444 97.6347 235.4310 0057946 73.3568 287.3998 14.83760571476558 SPROUT 1 39770U 14029E 22265.06384274 .00006698 00000-0 66717-3 0 9992 2 39770 97.9505 22.7095 0009233 121.1624 239.0481 14.91912154452063 DTUSAT-2 1 40030U 14033W 22265.54387375 .00002056 00000-0 21731-3 0 9997 2 40030 97.9388 198.7301 0013195 93.4364 266.8363 14.90284773448106 EO-80 1 40032U 14033Y 22265.58504593 .00002138 00000-0 22589-3 0 9999 2 40032 97.9396 198.7862 0013181 94.1123 266.1601 14.90261129448080 HODOYOSHI-1 1 40299U 14070B 22265.83385398 .00005339 00000-0 19920-3 0 9994 2 40299 97.2349 331.1003 0012954 145.6645 324.9472 15.27743213437924 FIREBIRD FU3 1 40377U 15003B 22265.48696019 .00018810 00000-0 52121-3 0 9992 2 40377 99.0847 152.1753 0095899 56.3417 304.6921 15.32447517423261 FIREBIRD FU4 1 40378U 15003C 22265.44080721 .00018772 00000-0 51852-3 0 9993 2 40378 99.0851 152.3520 0095764 56.0927 304.9371 15.32555221423269 GRIFEX 1 40379U 15003D 22265.56077185 .00009278 00000-0 31478-3 0 9990 2 40379 99.0978 137.2978 0112953 100.9787 260.4176 15.24838779422410 XW-2A 1 40903U 15049E 22265.87631515 .00027338 00000-0 37326-3 0 9995 2 40903 97.1684 324.7443 0010241 117.5458 358.5272 15.57387267394402 XW-2C 1 40906U 15049H 22265.92386561 .00005828 00000-0 27360-3 0 9999 2 40906 97.4971 268.6285 0014244 27.0877 35.7366 15.19933719387726 XW-2D 1 40907U 15049J 22265.84629838 .00006637 00000-0 30430-3 0 9999 2 40907 97.4959 268.6222 0013397 23.0966 97.3710 15.20711937387766 LILACSAT-2 1 40908U 15049K 22265.90788539 .00003230 00000-0 16985-3 0 9996 2 40908 97.5213 265.5765 0016301 44.3703 20.6159 15.16274135387251 XW-2E 1 40909U 15049L 22265.88954822 .00010495 00000-0 42159-3 0 9997 2 40909 97.4665 273.4309 0011211 3.6966 80.6217 15.25077735388257 XW-2F 1 40910U 15049M 22265.85143837 .00010393 00000-0 42412-3 0 9991 2 40910 97.4747 272.5503 0012541 3.2838 81.1987 15.24537608388010 XW-2B 1 40911U 15049N 22265.87236039 .00006600 00000-0 30366-3 0 9992 2 40911 97.4943 269.2167 0013602 24.3328 60.3392 15.20588731387652 DCBB 1 40912U 15049P 22265.85423731 .00011849 00000-0 43716-3 0 9992 2 40912 97.4373 276.9023 0010779 326.2411 155.7075 15.27880868388612 TW-1A 1 40928U 15051D 22265.88959571 .00065854 00000-0 58467-3 0 9995 2 40928 97.0318 288.1852 0006815 46.4259 31.3466 15.68323505393463 IO-86 1 40931U 15052B 22265.22503456 .00001061 00000-0 58248-4 0 9993 2 40931 5.9986 198.7305 0012731 97.9378 262.2134 14.76864489377673 AO-85 1 40967U 15058D 22263.27480072 .00001434 00000-0 16923-3 0 4867 2 40967 64.7747 143.3896 0182777 169.5160 190.9845 14.77718565 74678 ATHENOXAT-1 1 41168U 15077C 22265.22981625 .00016556 00000-0 64586-3 0 9997 2 41168 14.9850 91.9892 0008162 157.1443 5.9019 15.23147550375078 ChubuSat-2 1 41338U 16012B 22265.32312049 .00002109 00000-0 15183-3 0 9993 2 41338 31.0021 126.9674 0013228 33.1425 327.0037 15.01670577362054 ChubuSat-3 1 41339U 16012C 22265.31163139 .00002016 00000-0 14464-3 0 9995 2 41339 31.0109 123.9530 0013252 40.3254 319.8358 15.01726117362054 Horyu-4 1 41340U 16012D 22265.23075057 .00003265 00000-0 22533-3 0 9992 2 41340 31.0043 100.8424 0012894 82.9236 277.2866 15.03816329362308 e-st@r-II 1 41459U 16025D 22265.74799836 .00009085 00000-0 38053-3 0 9991 2 41459 98.1929 78.2975 0139224 298.8029 59.9312 15.15327216352226 AAUSAT4 1 41460U 16025E 22265.31595312 .00018580 00000-0 66398-3 0 9992 2 41460 98.1826 84.9921 0117868 272.7529 86.0227 15.22463059352663 LO-87 1 41557U 16033B 22265.86866535 .00014590 00000-0 40653-3 0 9999 2 41557 97.3890 3.8787 0010807 35.1983 105.1902 15.36831122352334 NuSat2 1 41558U 16033C 22265.84426808 .00014634 00000-0 38381-3 0 9997 2 41558 97.4112 10.1066 0010113 24.1827 128.7535 15.38713655352615 Lapan A3 1 41603U 16040E 22265.75450391 .00001370 00000-0 64847-4 0 9990 2 41603 97.1996 298.5186 0013121 171.1123 300.6563 15.20897047346829 Pratham 1 41783U 16059A 22265.38346016 .00000368 00000-0 79485-4 0 9996 2 41783 97.9057 303.0193 0032395 226.0146 133.8385 14.63429108319804 TY-1 1 41844U 16066D 22265.84692287 .00013804 00000-0 44042-3 0 9996 2 41844 97.3894 277.5471 0010430 307.7810 153.6214 15.32568464326513 CAS-2T 1 41847U 16066G 22265.78052585 .00000512 00000-0 87842-4 0 9991 2 41847 98.5420 330.3103 0362156 278.7433 77.2906 14.38729445308340 EO-88 1 42017U 17008BX 22265.70016070 .00016255 00000-0 44450-3 0 9997 2 42017 97.2598 330.5361 0003326 243.8121 116.2782 15.37440188312006 CAS-4B 1 42759U 17034B 22265.74241183 .00004501 00000-0 26627-3 0 9995 2 42759 43.0165 156.2041 0008948 190.0770 269.6557 15.12518474291088 CAS-4A 1 42761U 17034D 22265.89677252 .00004034 00000-0 23946-3 0 9996 2 42761 43.0173 154.0722 0009456 193.1369 223.3007 15.12598169291115 NIUSat 1 42766U 17036B 22265.57397519 .00008230 00000-0 30516-3 0 9996 2 42766 97.1950 299.9750 0012440 350.6492 9.4514 15.27786344291629 Aalto 1 1 42775U 17036L 22265.53655206 .00006211 00000-0 23839-3 0 9999 2 42775 97.1905 299.6802 0011491 351.2689 8.8349 15.26755385291588 URSA MAIOR 1 42776U 17036M 22265.34734431 .00006468 00000-0 24319-3 0 9995 2 42776 97.1919 300.3309 0011144 350.5214 9.5813 15.27427439291599 Max Valier Sat 1 42778U 17036P 22265.33251193 .00006964 00000-0 25467-3 0 9991 2 42778 97.1976 303.1444 0009776 352.1609 7.9476 15.28327492291696 Pegasus 1 42784U 17036V 22265.57910041 .00010193 00000-0 34536-3 0 9994 2 42784 97.1913 304.4354 0008937 351.9299 8.1797 15.30712514291862 NUDATSat 1 42787U 17036Y 22265.54698299 .00023294 00000-0 64448-3 0 9993 2 42787 97.1938 309.3150 0007057 339.0269 21.0668 15.36982259291992 SUCHAI 1 1 42788U 17036Z 22265.58082543 .00012673 00000-0 40037-3 0 9994 2 42788 97.1915 306.3576 0007877 345.9745 14.1278 15.32919335292051 SKCUBE 1 42789U 17036AA 22265.56641785 .00010837 00000-0 35346-3 0 9999 2 42789 97.1914 305.6867 0008081 347.8575 12.2471 15.31933354291932 VZLUSAT 1 1 42790U 17036AB 22265.56571686 .00018272 00000-0 51035-3 0 9997 2 42790 97.1935 309.2776 0006307 336.4707 23.6249 15.36740778292140 VENTA 1 1 42791U 17036AC 22265.38128666 .00009403 00000-0 31507-3 0 9992 2 42791 97.1920 305.3007 0008026 350.1815 9.9268 15.31101824291888 Robusta 1B 1 42792U 17036AD 22265.35428974 .00011362 00000-0 36269-3 0 9992 2 42792 97.1912 306.1239 0007640 348.9934 11.1140 15.32616831291956 D-SAT 1 42794U 17036AF 22265.74003667 .00001993 00000-0 17013-3 0 9990 2 42794 97.4553 266.0546 0123794 118.9934 242.3760 14.92985439286027 TechnoSat 1 42829U 17042E 22265.80121893 .00001352 00000-0 13803-3 0 9997 2 42829 97.4105 114.2219 0015100 46.1130 314.1334 14.92061588282606 AO-91 1 43017U 17073E 22265.68381959 .00002839 00000-0 21620-3 0 9995 2 43017 97.6608 155.8770 0245269 229.0505 128.9252 14.82041659261511 PICSAT 1 43132U 18004X 22265.45657702 .00011955 00000-0 36868-3 0 9994 2 43132 97.3659 341.4168 0007328 24.1510 336.0075 15.33713892261267 AO-92 1 43137U 18004AC 22265.72958692 .00008965 00000-0 30131-3 0 9995 2 43137 97.3619 340.0781 0007718 28.0088 332.1567 15.31029483261212 TianYi 2 1 43155U 18008A 22265.86900959 .00007230 00000-0 37362-3 0 9994 2 43155 97.3434 321.1575 0016371 160.6708 317.1812 15.16458143258039 Zhou Enlai 1 43156U 18008B 22265.89445644 .00007750 00000-0 40282-3 0 9995 2 43156 97.3486 321.0898 0013646 160.1225 304.1108 15.16262670257968 TianYi 6 1 43158U 18008D 22265.87390502 .00006646 00000-0 35768-3 0 9993 2 43158 97.3443 318.8421 0013137 159.7138 253.1134 15.15088954257851 S-Net D 1 43186U 18014G 22265.81567973 .00002403 00000-0 20722-3 0 9994 2 43186 97.6478 169.6623 0009666 341.2134 18.8731 14.98201881253496 S-Net B 1 43187U 18014H 22265.48200164 .00002414 00000-0 20812-3 0 9996 2 43187 97.6475 169.2820 0009682 342.2518 17.8365 14.98198318253441 S-Net A 1 43188U 18014J 22265.68267580 .00002451 00000-0 21125-3 0 9993 2 43188 97.6480 169.5477 0009681 341.7394 18.3480 14.98199279253478 S-Net C 1 43189U 18014K 22265.54997971 .00002462 00000-0 21219-3 0 9999 2 43189 97.6476 169.3361 0009691 342.4367 17.6519 14.98195956252004 FMN 1 1 43192U 18015A 22265.92828291 .00036368 00000-0 81353-3 0 9991 2 43192 97.5462 54.0712 0009677 40.1156 81.2984 15.43350462258458 Shaonian Xing 1 43199U 18015H 22265.93109564 .00019975 00000-0 55024-3 0 9995 2 43199 97.5260 48.2428 0012813 56.4260 67.6539 15.37098158258405 SurfSat 1 43614U 18070B 22265.39838186 .00044549 00000-0 49603-3 0 9998 2 43614 93.0180 140.0737 0008704 14.6652 345.4866 15.62661410226161 CP-7 DAVE 1 43615U 18070C 22265.57271399 .00042022 00000-0 50821-3 0 9994 2 43615 93.0170 139.8861 0009620 15.9998 344.1570 15.60509228226142 ELFIN-B 1 43616U 18070D 22265.07726781 .00755288 28432-3 11404-2 0 9990 2 43616 93.0000 142.0717 0001887 169.7292 190.4037 16.04696124226605 CubeBel-1 1 43666U 18083E 22265.76957571 .00009606 00000-0 39016-3 0 9992 2 43666 97.4155 293.4194 0012358 359.4755 90.0031 15.24716223216305 Changshagaoxin 1 43669U 18083H 22265.85965541 .00008907 00000-0 38057-3 0 9998 2 43669 97.4117 289.1858 0009124 1.9322 123.7333 15.23057958216122 Ten-Koh 1 43677U 18084G 22265.17246247 .00001426 00000-0 14881-3 0 9996 2 43677 97.9773 36.1845 0014790 316.2847 43.7199 14.91310778212098 PO-101 1 43678U 18084H 22265.74569103 .00001295 00000-0 13244-3 0 9995 2 43678 97.9844 40.2342 0009101 331.8471 28.2275 14.92316654212365 IRVINE 01 1 43693U 18088D 22265.68684893 .00049672 00000-0 10671-2 0 9994 2 43693 85.0242 244.5989 0015381 103.3129 256.9842 15.44355767215197 QO-100 1 43700U 18090A 22265.51454731 .00000140 00000-0 00000-0 0 9994 2 43700 0.0112 231.4590 0002391 349.5396 351.4328 1.00274064 14003 Reaktor Hello World 1 43743U 18096AA 22265.46867212 .00011981 00000-0 34170-3 0 9996 2 43743 97.3474 345.0330 0015454 73.8400 286.4543 15.36088192212848 MinXSS-2 1 43758U 18099A 22265.46491069 .00003383 00000-0 29222-3 0 9997 2 43758 97.6162 331.0287 0013078 301.9807 58.0144 14.97829777207621 AO-95 1 43770U 18099N 22265.73562005 .00002974 00000-0 26418-3 0 9999 2 43770 97.6131 329.5391 0012509 314.5806 45.4394 14.96834042207566 RANGE-B 1 43772U 18099Q 22265.48550032 .00002787 00000-0 24327-3 0 9999 2 43772 97.6253 331.2091 0012021 300.4813 59.5222 14.97572812207551 RANGE-A 1 43773U 18099R 22265.41993976 .00001181 00000-0 10936-3 0 9999 2 43773 97.6045 327.9535 0011922 301.6436 58.3622 14.96317268207494 MOVE-II 1 43780U 18099Y 22265.47021013 .00004667 00000-0 39576-3 0 9990 2 43780 97.6175 330.6573 0010743 310.1357 49.8923 14.98380096207586 SNUSat 2 1 43782U 18099AA 22265.43851636 .00001998 00000-0 17856-3 0 9991 2 43782 97.6122 329.7380 0011222 297.9559 62.0527 14.96963791207544 SnugLite 1 43784U 18099AC 22265.46122509 .00003002 00000-0 26398-3 0 9995 2 43784 97.6089 329.3877 0012882 306.6489 53.3548 14.97217488207573 ITASat 1 1 43786U 18099AE 22265.45372582 .00002119 00000-0 18922-3 0 9996 2 43786 97.6145 330.2335 0013324 305.6093 54.3887 14.96917156207564 EAGLET 1 1 43790U 18099AJ 22265.74068215 .00002164 00000-0 19264-3 0 9998 2 43790 97.6146 331.0564 0011551 310.3622 49.6591 14.97037350207349 ESEO 1 43792U 18099AL 22265.44823899 .00001072 00000-0 99634-4 0 9991 2 43792 97.6089 329.8414 0011885 307.6773 52.3370 14.96354656207337 CSIM 1 43793U 18099AM 22265.80028780 .00004374 00000-0 36497-3 0 9993 2 43793 97.6175 331.9774 0009759 296.3682 63.6539 14.99051222207469 Astrocast 0.1 1 43798U 18099AS 22265.73045417 .00003906 00000-0 33381-3 0 9995 2 43798 97.6155 331.6676 0010028 280.8461 79.1633 14.98182626207676 JO-97 1 43803U 18099AX 22265.43667551 .00002239 00000-0 19674-3 0 9995 2 43803 97.6107 330.0047 0013603 304.0943 55.8988 14.97501364207588 Suomi 100 1 43804U 18099AY 22265.46150569 .00002963 00000-0 25950-3 0 9993 2 43804 97.6108 329.9292 0012965 305.2149 54.7859 14.97383706207594 Al Farabi 2 1 43805U 18099AZ 22265.87597735 .00003979 00000-0 34062-3 0 9991 2 43805 97.6135 330.9336 0012775 303.3183 56.6812 14.98083552207689 CHOMPTT 1 43855U 18104G 22265.67972877 .00008013 00000-0 28292-3 0 9997 2 43855 85.0389 346.2711 0013251 231.6090 128.3966 15.28959800209572 ISAT 1 43879U 18111D 22265.50576897 .00002549 00000-0 21778-3 0 9995 2 43879 97.6560 169.3443 0012938 3.1819 356.9483 14.98485807204201 UWE-4 1 43880U 18111E 22265.49970953 .00003162 00000-0 26806-3 0 9995 2 43880 97.6602 170.0984 0012118 6.5278 353.6100 14.98619442204232 Sparrow 1 43881U 18111F 22264.97228162 .00002797 00000-0 23656-3 0 9999 2 43881 97.6615 169.8467 0012446 4.4979 355.6354 14.98797459204168 Lume 1 1 43908U 18111AJ 22265.49361027 .00009251 00000-0 30009-3 0 9997 2 43908 97.1765 150.2759 0019895 87.6571 272.6949 15.31988037208246 FO-99 1 43937U 19003F 22265.31510445 .00010851 00000-0 34314-3 0 9992 2 43937 97.1245 294.9925 0020392 161.7770 198.4208 15.32747646204802 MYSat 1 1 44045U 18092F 22265.13179336 .00061265 00000-0 62781-3 0 9994 2 44045 51.6283 307.1474 0008034 75.1590 285.0294 15.64337204202955 AstroCast 0.2 1 44083U 19018F 22265.69936135 .00013991 00000-0 50268-3 0 9994 2 44083 97.3130 322.7755 0010913 136.6807 223.5293 15.28703985193333 AISTechSat 3 1 44103U 19018AB 22264.93719858 .00008577 00000-0 30671-3 0 9994 2 44103 97.2995 322.3151 0012707 147.3357 212.8672 15.28969520193388 AISat 1 1 44104U 19018AC 22265.30037289 .00008677 00000-0 23358-3 0 9993 2 44104 97.3918 348.8682 0051630 145.0035 215.4620 15.36724752194460 Prox-1 1 44339U 19036A 22265.42526076 .00003308 00000-0 69672-3 0 9998 2 44339 24.0012 301.0793 0010223 195.3817 164.6364 14.55533248172492 Oculus-ASR 1 44348U 19036K 22265.64175189 .00085131 -48152-5 67259-3 0 9996 2 44348 28.4993 236.6347 0204350 330.3509 28.5642 15.47058176179556 NO-104 1 44354U 19036R 22264.60769923 .00099847 -40975-5 73572-3 0 9992 2 44354 28.5223 226.9788 0193775 342.2307 17.1592 15.50427783179564 Move-IIb 1 44398U 19038N 22265.88645397 .00013235 00000-0 60362-3 0 9990 2 44398 97.6372 236.2921 0021810 144.4215 215.8471 15.20550773177831 SONATE 1 44400U 19038Q 22265.54833873 .00004628 00000-0 24715-3 0 9993 2 44400 97.6488 234.5844 0023895 154.2806 205.9613 15.15383548177632 BeeSat 9 1 44412U 19038AC 22265.71315494 .00007810 00000-0 38344-3 0 9998 2 44412 97.6448 235.8457 0020790 152.1217 208.1135 15.18171370177443 JAISAT-1 1 44419U 19038F 22264.35075872 .00008398 00000-0 40700-3 0 9998 2 44419 97.6451 235.3802 0019649 153.9070 206.3159 15.18621647177601 LightSail-2 1 44420U 19036AC 22265.06750074 .00103291 00000-0 96082-2 0 9992 2 44420 23.9979 212.1868 0004173 289.5561 70.4488 14.92704878171464 Taurus 1 1 44530U 19059C 22265.55994719 .00002453 00000-0 68022-3 0 9991 2 44530 98.5498 5.0377 0013925 180.7746 179.3416 14.47400894159890 Duchifat 3 1 44854U 19089C 22265.34090903 .00003731 00000-0 28775-3 0 9993 2 44854 36.9659 245.7252 0009157 287.1466 72.8278 15.01629680152503 OPS-SAT 1 44878U 19092F 22265.77634150 .00008946 00000-0 39980-3 0 9991 2 44878 97.4812 88.9992 0012178 6.8867 353.2533 15.21500281152987 TO-108 1 44881U 19093C 22265.88616094 .00000535 00000-0 74340-4 0 9991 2 44881 97.8872 343.6764 0013902 225.9840 134.0205 14.81821872149209 FloripaSat 1 1 44885U 19093G 22265.62081641 .00001914 00000-0 23929-3 0 9999 2 44885 97.8919 344.9685 0013331 232.2643 127.7366 14.83434402149252 RS-44 1 44909U 19096E 22265.84113678 .00000016 00000-0 97962-5 0 9991 2 44909 82.5247 165.5919 0218380 91.9868 270.6256 12.79714993128017 BY70-2 1 45857U 20042B 22265.62751917 .00006928 00000-0 90311-3 0 9994 2 45857 97.9501 341.5843 0011286 155.9001 204.2732 14.80835022119834 UPMSat 2 1 46276U 20061E 22265.50522783 .00003525 00000-0 17262-3 0 9999 2 46276 97.3841 334.1114 0002037 140.3643 219.7741 15.18810482113609 AmicalSat 1 46287U 20061R 22265.42917641 .00004321 00000-0 24492-3 0 9991 2 46287 97.4386 332.8611 0001265 334.0050 26.1118 15.13502831113136 SALSAT 1 46495U 20068K 22265.52040537 .00003136 00000-0 22569-3 0 9997 2 46495 97.7349 206.8977 0015264 312.5619 47.4318 15.04879216108787 BY70-3 1 46839U 20079N 22265.92937019 .00027918 00000-0 57310-3 0 9991 2 46839 97.1893 336.9536 0004198 350.1580 125.6351 15.45979920105288 CAPE 3 1 47309U 21002A 22265.81348378 .00009205 00000-0 35510-3 0 9990 2 47309 60.6842 357.9055 0037117 40.7032 319.6819 15.26353043 93304 AO-109 1 47311U 21002C 22265.83759399 .00007716 00000-0 29763-3 0 9992 2 47311 60.6875 355.2853 0033344 41.5058 318.8554 15.26688725 93333 MiTEE 1 1 47314U 21002F 22265.53491205 .00016681 00000-0 51721-3 0 9991 2 47314 60.6834 346.7137 0030697 33.4924 326.8100 15.33152831 93463 ExoCube 2 1 47319U 21002L 22265.53725556 .00007796 00000-0 30451-3 0 9999 2 47319 60.6854 357.7099 0034544 42.2958 318.0784 15.26217628 93222 UVSQ-SAT 1 47438U 21006AB 22264.90159693 .00005888 00000-0 30397-3 0 9997 2 47438 97.4285 321.9426 0010170 303.8375 56.1889 15.16649523 91894 YUSAT 1 1 47439U 21006AC 22265.69631967 .00006558 00000-0 33227-3 0 9994 2 47439 97.4293 322.9004 0009785 300.3685 59.6580 15.17270967 92028 SOMP 2b 1 47445U 21006AJ 22265.45005914 .00005628 00000-0 29387-3 0 9991 2 47445 97.4256 322.0603 0009912 306.8555 53.1769 15.16268559 91962 IDEASSat 1 47458U 21006AX 22265.44236603 .00005426 00000-0 28484-3 0 9998 2 47458 97.4345 322.6388 0009069 305.6339 54.4049 15.16100159 91956 CubeSX-Sirius-HSE 1 47951U 21022V 22265.93062910 .00004340 00000-0 28378-3 0 9992 2 47951 97.5183 163.3881 0021266 168.0260 320.9171 15.08120466 82681 CubeSX-HSE 1 47952U 21022W 22265.83617360 .00003717 00000-0 24336-3 0 9994 2 47952 97.5174 163.3216 0020798 167.4352 257.8181 15.08171581 82670 KSU-Cubesat 1 47954U 21022Y 22265.70541493 .00003832 00000-0 24886-3 0 9993 2 47954 97.5189 163.3371 0020646 166.9543 193.2224 15.08463462 82389 GRBAlpha 1 47959U 21022AD 22265.70339185 .00003694 00000-0 24168-3 0 9990 2 47959 97.5176 163.2378 0020727 168.1068 276.2323 15.08202388 81471 Orbicraft-Zorkiy 1 47960U 21022AE 22265.86301365 .00005040 00000-0 32656-3 0 9996 2 47960 97.5204 163.5718 0020611 167.9700 257.2206 15.08399148 82198 STECCO 1 47962U 21022AG 22265.74743310 .00006525 00000-0 39653-3 0 9998 2 47962 97.5167 164.4021 0015672 159.0195 285.9942 15.10707353 81554 DO-111 1 47963U 21022AH 22265.52112270 .00014512 00000-0 75335-3 0 9992 2 47963 97.5212 165.8729 0016975 149.2209 211.0023 15.16098892 81647 MO-110 1 47964U 21022AJ 22265.68488602 .00006368 00000-0 38232-3 0 9990 2 47964 97.5183 164.6635 0018593 156.8029 203.4044 15.11114692 81561 FEES 1 48082U 21022AL 22265.50507307 .00008008 00000-0 46832-3 0 9995 2 48082 97.5194 164.5129 0015038 151.3112 208.8948 15.12034926 81245 RamSat 1 48850U 98067SL 22264.92689652 .00322712 51090-4 89760-3 0 9997 2 48850 51.6326 178.5739 0004517 150.9386 209.1873 15.93217204 72574 TUBIN 1 48900U 21059X 22265.65401935 .00003726 00000-0 20557-3 0 9998 2 48900 97.5659 34.2829 0011041 123.9183 1.2686 15.14533597 68624 IT-SPINS 1 49017U 21013G 22265.35540663 .00008726 00000-0 32555-3 0 9993 2 49017 51.5985 295.3926 0008795 63.1900 296.9978 15.28150554 68594 LEDSAT 1 49069U 21073D 22265.72816960 .00003462 00000-0 21953-3 0 9995 2 49069 97.5177 336.6927 0025593 323.9249 36.0252 15.09310345 60508 CUTE 1 49263U 21088D 22265.70255907 .00003560 00000-0 26253-3 0 9990 2 49263 97.5814 331.6800 0021902 94.3056 266.0673 15.03738203 54036 Binar-1 1 49272U 98067SR 22264.93239126 .00716861 26038-3 10778-2 0 9991 2 49272 51.6221 180.7358 0004890 190.4049 169.6862 16.04061775 54939 TeikyoSat 4 1 49396U 21102B 22265.10541258 .00001763 00000-0 14290-3 0 9996 2 49396 97.5293 320.1093 0015469 293.2762 66.6834 15.00855209 47540 Z-Sat 1 49399U 21102E 22265.78376154 .00002111 00000-0 16133-3 0 9990 2 49399 97.5255 321.8644 0022204 259.4226 100.4498 15.02826082 47705 KOSEN 1 1 49402U 21102H 22265.70926371 .00002884 00000-0 21233-3 0 9993 2 49402 97.5206 321.9811 0021101 248.8577 111.0394 15.03963099 47725 HO-113 1 50466U 21131B 22265.82910002 .00000155 00000-0 65419-4 0 9998 2 50466 98.5752 343.0127 0004222 204.3388 155.7600 14.38527368 38919 Tevel 1 50999U 22002R 22265.78550840 .00007916 00000-0 41413-3 0 9991 2 50999 97.4721 331.3182 0012453 84.1225 36.4898 15.16047189 38160 Grizu-263a 1 51025U 22002AT 22265.71519499 .00012666 00000-0 60763-3 0 9997 2 51025 97.4905 332.3917 0013446 88.5159 271.7616 15.18940315 38199 NO-116 1 51031U 22002AZ 22263.45236379 .00010663 00000-0 53546-3 0 9992 2 51031 97.4864 329.7481 0014097 95.2382 265.0460 15.17381441 37833 IRIS-A 1 51044U 22002BN 22265.43992625 .00003930 00000-0 21899-3 0 9994 2 51044 97.4742 330.5656 0010728 90.8072 269.4389 15.14131708 38082 DELFI-PQ 1 51074U 22002CU 22265.71612541 .00009676 00000-0 46310-3 0 9992 2 51074 97.4985 332.9658 0014689 115.0456 245.2305 15.19078365 38217 SO-115 1 51080U 22002DA 22265.42354795 .00007111 00000-0 35389-3 0 9997 2 51080 97.4994 332.4804 0014681 116.0152 244.2596 15.17817246 38159 SO-114 1 51081U 22002DB 22263.97352968 .00007457 00000-0 37106-3 0 9998 2 51081 97.4978 331.0157 0015224 120.4468 239.8272 15.17797899 37938 OreSat0 1 52017U 22026K 22265.54974599 .00006972 00000-0 36244-3 0 9992 2 52017 97.5069 264.2298 0024852 299.9200 59.9564 15.16119897 28891 Planetum 1 1 52738U 22057G 22265.58152503 .00005714 00000-0 32891-3 0 9990 2 52738 97.5203 18.7284 0008017 188.0446 172.0657 15.12800584 18113 Foresail-1 1 52766U 22057AL 22265.90000221 .00004702 00000-0 26245-3 0 9998 2 52766 97.5290 19.4316 0013820 171.8597 309.0794 15.13947952 18171 SNUGLITE 2 1 52899U 22065F 22265.92764372 .00000709 00000-0 16256-3 0 9994 2 52899 98.0335 53.9980 0007771 340.9283 19.1623 14.58428856 11902 CTIM 1 52950U 22074G 22265.58089646 .00012204 00000-0 48984-3 0 9994 2 52950 45.0120 30.8169 0003784 324.3233 35.7420 15.25057463 12556 GREENCUBE 1 53106U 22080B 22263.63451217 -.00000003 00000-0 00000-0 0 9995 2 53106 70.1601 53.3611 0008614 241.9563 118.0226 6.42557912 4432 AstroBioCubeSat 1 53107U 22080C 22260.56755176 -.00000003 00000-0 00000-0 0 9996 2 53107 70.1415 54.4777 0013344 232.1277 127.8227 6.42110658 4140 CELESTA 1 53111U 22080G 22255.16019017 -.00000003 00000-0 00000 0 0 9997 2 53111 70.1086 56.1818 0009300 227.1361 132.8517 6.42544045 3765 RS4S 1 53306U 98067TR 22265.58032612 .00047798 00000-0 70482-3 0 9990 2 53306 51.6396 213.0986 0001381 192.7025 167.3931 15.54900094 9788 RS3S 1 53308U 98067TT 22265.58025192 .00046818 00000-0 69235-3 0 9993 2 53308 51.6396 213.0978 0001665 183.0817 177.0164 15.54830827 9847 RS1S 1 53309U 98067TU 22265.57748472 .00046128 00000-0 67843-3 0 9993 2 53309 51.6391 213.0774 0001180 212.2917 147.8002 15.54986879 9794 RS5S 1 53310U 98067TV 22265.38709849 .00045146 00000-0 66832-3 0 9995 2 53310 51.6394 214.0584 0001072 203.5110 156.5832 15.54818909 9793 RS6S 1 53311U 98067TW 22265.76546782 .00055850 00000-0 81234-3 0 9999 2 53311 51.6389 212.0833 0001987 171.5037 188.5988 15.55206366 9875 RS9S 1 53312U 98067TX 22265.57560183 .00047732 00000-0 70139-3 0 9992 2 53312 51.6395 213.0663 0001128 224.8778 135.2122 15.54996726 9780 RS12S 1 53313U 98067TY 22265.76666594 .00048231 00000-0 70687-3 0 9990 2 53313 51.6395 212.0927 0000711 208.9476 151.1476 15.55063680 9861 JAGSAT 1 53771U 98067UJ 22265.26175612 .00050064 00000-0 80115-3 0 9993 2 53771 51.6409 215.4684 0002391 320.3466 39.7348 15.52623682 2476 /EX